Regional Weather Roundup
Issued by NWS

Home | Current Version | Previous Version | Graphics & Text | Print | Product List | Glossary On
Versions: 1 2 3 4 5 6 7 8 9 10 11 12 13 14 15 16 17 18 19 20 21 22 23 24 25 26 27 28 29 30 31 32 33 34 35 36 37 38 39 40 41 42 43 44 45 46 47 48 49 50
000
ASUS43 KOAX 210602
RWRNE

WEATHER ROUNDUP FOR NEBRASKA
NATIONAL WEATHER SERVICE OMAHA NE
1200 AM CST SUN JAN 21 2018

NOTES: SATELLITE DATA IS BEING USED TO AUGMENT CLOUD COVER ABOVE
       12000 FEET.
       "FAIR" INDICATES FEW OR NO CLOUDS BELOW 12,000 FEET WITH NO
       SIGNIFICANT WEATHER AND/OR OBSTRUCTIONS TO VISIBILITY.


NEZ001>004-019>022-054>056-210700-
NEBRASKA PANHANDLE

CITY           SKY/WX    TMP DP  RH WIND       PRES   REMARKS
SCOTTSBLUFF    CLOUDY    32  30  92 NE15      29.89R WCI  22
6HR MIN TEMP:  32; 6HR MAX TEMP:  35;

ALLIANCE       CLOUDY    30  30 100 NE13      29.88S FOG     WCI  20
6HR MIN TEMP:  30; 6HR MAX TEMP:  32; 6HR PCP: TRACE;

CHADRON        LGT SNOW  31  30  96 NE8       29.94F VSB 1   WCI  23
6HR MIN TEMP:  31; 6HR MAX TEMP:  32; 6HR PCP: TRACE;

GORDON         CLOUDY    32  30  93 NE12      29.92S WCI  23
6HR MIN TEMP:  32; 6HR MAX TEMP:  34;

KIMBALL        CLOUDY    30  28  94 E7        29.85R WCI  23
SIDNEY         CLOUDY    31  29  92 NE16      29.84S WCI  20
6HR MIN TEMP:  30; 6HR MAX TEMP:  32;

$$

NEZ057>060-069>072-079>082-210700-
SOUTHWEST NEBRASKA

CITY           SKY/WX    TMP DP  RH WIND       PRES   REMARKS
NORTH PLATTE   MOCLDY    33  29  85 NE15      29.84F WCI  23
6HR MIN TEMP:  32; 6HR MAX TEMP:  36;

IMPERIAL       CLOUDY    32  29  88 NE12      29.83S WCI  23
6HR MIN TEMP:  29; 6HR MAX TEMP:  37;

LEXINGTON      CLOUDY    33  29  86 N9        29.83S WCI  25
MCCOOK         MOCLDY    31  28  89 N12       29.79F WCI  22
6HR MIN TEMP:  31; 6HR MAX TEMP:  37;

OGALLALA       CLOUDY    33  31  92 NE9       29.86R WCI  25
$$

NEZ005>010-023>029-035>040-094-210700-
NORTH CENTRAL NEBRASKA

CITY           SKY/WX    TMP DP  RH WIND       PRES   REMARKS
VALENTINE      CLOUDY    36  32  85 N15       29.93R WCI  27
6HR MIN TEMP:  36; 6HR MAX TEMP:  38;

AINSWORTH      CLOUDY    33  33 100 N8        29.91S WCI  26
BROKEN BOW     CLOUDY    34  28  79 N12       29.85S WCI  25
6HR MIN TEMP:  34; 6HR MAX TEMP:  38;

O`NEILL        CLOUDY    33  32  96 N9        29.89F WCI  25
ORD            MOCLDY    32  29  88 N10       29.86S WCI  24
6HR MIN TEMP:  32; 6HR MAX TEMP:  38;

THEDFORD       CLOUDY    34  33  96 NE13      29.89S WCI  25
$$

NEZ041-046>049-061>064-073>077-083>087-210700-
SOUTH CENTRAL NEBRASKA

CITY           SKY/WX    TMP DP  RH WIND       PRES   REMARKS
GRAND ISLAND   CLOUDY    34  31  88 NE10      29.84S WCI  26
6HR MIN TEMP:  30; 6HR MAX TEMP:  38;

AURORA         CLOUDY    36  31  83 N12       29.83S WCI  28
HASTINGS       CLOUDY    35  30  82 NE12      29.82S WCI  27
6HR MIN TEMP:  29; 6HR MAX TEMP:  40;

HEBRON           N/A     35  35  99 NE5       29.79F FOG     WCI  31
HOLDREGE       CLOUDY    33  32  94 N12       29.80F WCI  25
KEARNEY        CLOUDY    34  30  85 NE13      29.83S WCI  25
YORK           CLOUDY    37  36  93 N12       29.83S WCI  30
$$

NEZ011>018-030>034-042>045-210700-
NORTHEAST NEBRASKA

CITY           SKY/WX    TMP DP  RH WIND       PRES   REMARKS
NORFOLK        CLOUDY    35  29  78 N3        29.87R
6HR MIN TEMP:  34; 6HR MAX TEMP:  50;

ALBION         MOCLDY    33  31  89 N9        29.86F WCI  26
BLAIR          CLOUDY    39  36  89 N10       29.84F WCI  32
COLUMBUS       CLOUDY    35  30  82 N9        29.86F WCI  28
FREMONT        CLOUDY    36  32  84 CALM      29.85F
TEKAMAH        CLOUDY    35  28  75 N7        29.87F WCI  29
6HR MIN TEMP:  30; 6HR MAX TEMP:  38;

WAYNE          CLOUDY    31  30  96 N6        29.89S WCI  25
$$

NEZ050>053-065>068-078-088>093-210700-
SOUTHEAST NEBRASKA

CITY           SKY/WX    TMP DP  RH WIND       PRES   REMARKS
LINCOLN        CLOUDY    41  37  86 N7        29.84F
6HR MIN TEMP:  40; 6HR MAX TEMP:  45;

OMAHA EPPLEY   CLOUDY    38  35  89 N8        29.86F WCI  32
6HR MIN TEMP:  36; 6HR MAX TEMP:  42;

BEATRICE       CLOUDY    38  38  99 E7        29.82R FOG     WCI  33
FALLS CITY     CLOUDY    37  37 100 E7        29.82F FOG     WCI  32
6HR MIN TEMP:  37; 6HR MAX TEMP:  46;

NEBRASKA CITY  CLOUDY    39  39 100 NE3       29.83F FOG
PLATTSMOUTH    CLOUDY    40  39  99 E3        29.84F FOG
$$

NEZ044-045-051>053-067-210700-
OMAHA AREA

CITY           SKY/WX    TMP DP  RH WIND       PRES   REMARKS
OMAHA EPPLEY   CLOUDY    38  35  89 N8        29.86F WCI  32
6HR MIN TEMP:  36; 6HR MAX TEMP:  42;

BLAIR          CLOUDY    39  36  89 N10       29.84F WCI  32
FREMONT        CLOUDY    36  32  84 CALM      29.85F
MILLARD        CLOUDY    44  40  85 CALM      29.85F
OFFUTT AFB     CLOUDY    41  38  88 NE5       29.84F
PLATTSMOUTH    CLOUDY    40  39  99 E3        29.84F FOG
WAHOO          CLOUDY    38  32  78 N3        29.85R
$$



USA.gov is the U.S. government's official web portal to all federal, state and local government web resources and services.